Lobo

Go HERE for most recent data if this page is not up to date.

Jump to table bottom
Date/Time Temp deg F RH % 24 Hr Snow (in) Snow Depth (in) H2O (in)
07/16 16:00 62.7 45 "NAN" -10.7 0.00
07/16 15:00 64.0 40 "NAN" -9.2 0.00
07/16 14:00 58.7 44 "NAN" -9.9 0.00
07/16 13:00 57.8 55 "NAN" -11.0 0.00
07/16 12:00 58.3 55 "NAN" -9.6 0.00
07/16 11:00 59.2 50 "NAN" -9.8 0.00
07/16 10:00 61.6 54 "NAN" -9.8 0.00
07/16 09:00 58.7 41 "NAN" -10.4 0.00
07/16 08:00 56.9 48 "NAN" -9.8 0.00
07/16 07:00 57.6 41 "NAN" -9.6 0.00
07/16 06:00 56.3 49 "NAN" -10.6 0.00
07/16 05:00 57.0 49 "NAN" -11.3 0.00
07/16 04:00 56.8 45 "NAN" -10.7 0.00
07/16 03:00 58.0 44 "NAN" -10.8 0.00
07/16 02:00 58.5 42 "NAN" -10.6 0.00
07/16 01:00 58.7 45 "NAN" -11.1 0.00
07/16 00:00 57.8 46 "NAN" -10.2 0.00
07/15 23:00 58.8 48 "NAN" -10.8 0.00
07/15 22:00 61.1 36 "NAN" -11.2 0.00
07/15 21:00 62.4 31 "NAN" -21.6 0.00
07/15 20:00 63.0 30 "NAN" -10.9 0.00
07/15 19:00 64.7 29 "NAN" -21.6 0.00
07/15 18:00 66.2 26 "NAN" -10.2 0.00
07/15 17:00 67.1 29 "NAN" -21.6 0.00
07/15 16:00 67.8 30 "NAN" -9.2 0.00
07/15 15:00 67.7 29 "NAN" -4.5 0.00
07/15 14:00 67.8 30 "NAN" -10.0 0.00
07/15 13:00 67.3 39 "NAN" -10.8 0.00
07/15 12:00 65.3 32 "NAN" -10.9 0.00
07/15 11:00 61.5 55 "NAN" -10.2 0.00
07/15 10:00 59.0 62 "NAN" -10.9 0.00
07/15 09:00 55.8 70 "NAN" -10.9 0.00
07/15 08:00 53.3 71 "NAN" -10.5 0.00
07/15 07:00 52.0 80 "NAN" -9.2 0.00
07/15 06:00 51.5 78 "NAN" -10.0 0.00
07/15 05:00 51.9 74 "NAN" -10.7 0.00
07/15 04:00 52.0 80 "NAN" -10.5 0.00
07/15 03:00 52.9 69 "NAN" -10.8 0.00
07/15 02:00 54.4 71 "NAN" -9.6 0.00
07/15 01:00 55.4 68 "NAN" -10.1 0.00
07/15 00:00 57.2 56 "NAN" -10.8 0.00
.